www.pogodaiklimat.ru

Погода и климат >> Архив погоды >> Мексика >> Culiacan


ПОГОДА в Culiacan

  • Прогноз погоды в Culiacan
  • Монитор погоды в Culiacan
  • Климат города

АРХИВ ПОГОДЫ в Culiacan

Время (UTC), дата Ветер
(напр.,м/с)
 
Видим.   Явления Облачность Т
(С)
Тd
(С)
f
(%)
Тe
(С)
Тes
(С)
Комфортность P
(гПа)
Po
(гПа)
Тmin
(С)
Tmax
(С)
R
(мм)
R24
(мм)
S
(см)
12 12.11 Ю 1 16 км ясно +19.4 +15.6 79 +22 +22 комфорт 1014.0 1009.5 +19.2 +30.4
15 12.11 Ю 1 16 км ясно +23.8 +16.1 62 +27 +29 жарко 1016.0 1011.5
21 12.11 З 2 16 км ясно +35.7 +15.4 30 +37 +46 душно 1012.0 1007.6
00 13.11 З 2 16 км ясно +30.2 +17.3 46 +34 +34 очень
душно
1013.5 1009.1 +18.3 +36.2
03 13.11 СЗ 1 16 км ясно +26.0 +21.0 74 +33 +33 очень
душно
1013.6 1009.3
06 13.11 Ю 1 16 км ясно +23.2 +19.1 78 +30 +30 очень
душно
1014.8 1010.2 +23.0 +36.2
12 13.11 Ю 1 16 км ясно +20.0 +18.3 90 +24 +24 комфорт 1014.1 1009.6 +19.0 +31.4
15 13.11 16 км ясно +23.8 +17.8 69 1015.9 1011.4
18 13.11 Ю 1 16 км ясно +31.8 +19.1 47 +37 +49 очень
душно
1016.1 1011.6 +19.4 +32.6
21 13.11 Ю 1 16 км ясно +36.8 +16.9 31 +39 +49 очень
душно
1012.8 1008.4
00 14.11 З 1 16 км ясно +33.2 +18.8 43 +38 +39 очень
душно
1011.3 1007.9 +19.4 +37.2
03 14.11 Ю 1 16 км ясно +25.4 +21.4 79 +32 +32 очень
душно
1014.0 1009.7
06 14.11 В 1 16 км ясно +22.4 +18.9 81 +28 +28 душно 1014.7 1010.3 +22.3 +37.2
09 14.11 Ю 1 16 км ясно +21.0 +18.6 86 +27 +27 душно 1014.4 1009.9
12 14.11 Ю 1 16 км ясно +19.2 +17.4 89 +22 +22 комфорт 1013.8 1009.3 +19.0 +32.6
18 14.11 ЮЗ 2 16 км ясно +32.0 +20.1 49 +38 +48 очень
душно
1014.7 1010.2 +33.0
21 14.11 Ю 2 16 км ясно +35.2 +19.6 40 +41 +49 опасность
перегрева
1012.5 1008.2
00 15.11 ЮЗ 2 16 км ясно +31.0 +19.5 50 +37 +37 очень
душно
1011.7 1007.4 +18.2 +36.4
03 15.11 В 1 16 км ясно +24.6 +18.2 68 +29 +29 душно 1013.1 1008.7
06 15.11 ЮВ 1 16 км ясно +22.2 +19.8 86 +28 +28 душно 1013.4 1009.0 +18.2 +36.4
09 15.11 штиль 0 16 км ясно +20.9 +17.7 82 +25 +25 комфорт 1013.3 1008.9
12 15.11 В 1 16 км ясно +19.7 +17.7 88 +23 +23 комфорт 1013.4 1008.9 +18.7 +36.4
15 15.11 В 2 16 км ясно +23.6 +16.5 64 +27 +28 жарко 1014.7 1010.2
18 15.11 ЮЗ 1 16 км ясно +33.8 +18.3 40 +38 +50 очень
душно
1015.0 1010.5 +18.4 +34.0
21 15.11 ЮЗ 1 16 км ясно +34.2 +19.7 43 +40 +50 очень
душно
1012.2 1007.8
00 16.11 З 1 16 км ясно +31.6 +14.8 36 +34 +34 душно 1011.8 1007.5 +19.8 +34.4
03 16.11 Ю 1 16 км ясно +24.0 +19.3 75 +29 +29 душно 1013.4 1009.0
06 16.11 В 1 16 км ясно +21.2 +18.0 82 +25 +25 комфорт 1013.8 1009.4 +21.0 +34.4
12 16.11 В 1 16 км ясно +17.2 +15.9 92 +18 +18 1013.8 1009.3 +16.8
15 16.11 В 1 16 км ясно +21.4 +16.2 72 +25 +27 комфорт 1015.6 1011.1
18 16.11 Ю 2 16 км ясно +32.3 +20.6 50 +39 +49 очень
душно
1016.3 1011.8 +16.9 +32.5
21 16.11 ЮЗ 2 16 км ясно +32.5 +17.4 41 +36 +45 очень
душно
1014.0 1009.5
00 17.11 ЮЗ 2 16 км ясно +30.2 +16.6 44 +34 +34 очень
душно
1013.8 1009.4 +17.0 +33.7
03 17.11 С 1 16 км ясно +23.0 +17.4 71 +28 +28 душно 1016.2 1011.9
06 17.11 С 1 16 км ясно +20.7 +16.4 76 +25 +25 комфорт 1015.3 1010.9 +20.6 +33.7
12 17.11 С 1 16 км ясно +18.6 +16.9 90 +21 +21 комфорт 1016.3 1011.7 +18.5 +29.2
15 17.11 В 1 16 км ясно +23.3 +18.2 73 +29 +31 душно 1018.0 1013.5
18 17.11 Ю 2 16 км ясно +31.6 +19.2 48 +37 +47 очень
душно
1017.7 1013.2 +17.2 +31.6
21 17.11 ЮЗ 2 16 км ясно +33.4 +12.4 28 +34 +42 очень
жарко
1014.1 1009.7
00 18.11 З 2 16 км ясно +30.0 +13.0 35 +31 +31 жарко 1013.4 1009.0 +17.2 +34.0
03 18.11 З 1 16 км ясно +24.2 +17.4 66 +28 +28 душно 1014.9 1010.5
06 18.11 В 2 16 км ясно +19.8 +16.2 80 +23 +23 комфорт 1015.4 1011.0 +19.3 +34.0
09 18.11 В 1 16 км ясно +17.0 +15.7 92 +18 +18 1014.5 1010.1
12 18.11 С 1 16 км ясно +15.4 +15.1 98 +16 +16 1014.8 1010.3 +15.0 +30.6
15 18.11 ЮВ 1 16 км ясно +19.4 +15.6 79 +22 +24 комфорт 1015.7 1011.1
21 18.11 З 1 16 км ясно +33.6 +9.9 23 +33 +42 жарко 1012.3 1007.8
00 19.11 З 1 16 км ясно +30.6 +14.1 37 +32 +33 жарко 1011.6 1007.2 +14.9 +34.6
03 19.11 СЗ 1 16 км ясно +23.4 +18.4 74 +30 +30 очень
душно
1013.2 1008.8
06 19.11 В 1 16 км ясно +19.4 +16.8 85 +22 +22 комфорт 1013.6 1009.2 +19.0 +34.6
09 19.11 СВ 1 16 км ясно +17.0 +13.0 77 +18 +18 1013.1 1008.6

 

Местоположение метеостанции Culiacan (Мексика): широта 24.80 долгота -107.40 высота над уровнем моря 39 м.

В архиве по умолчанию представлена погода в Culiacan за последнюю неделю. Архивные данные за месяц целиком и за предыдущие месяцы, начиная с января 2011 года, Вы можете получить, выбрав интересующий диапазон дат из раскрывающегося списка и нажав кнопку "Ввод!".

Внимание! Время в таблицах - всемирное. Для получения местного времени необходимо прибавить поправку, которая в Culiacan равна -7 ч.

Смотрите также архив погоды в соседних городах и на ближайших метеорологических станциях:

Погода в Tepehuanes (Мексика) (180 км)
Погода в Mazatlan (Мексика) (205 км)
Погода в Choix (Мексика) (229 км)
Погода в Durango (Мексика) (296 км)
Погода в Hidalgo del Parral (Мексика) (298 км)
Погода в La Paz (Мексика) (302 км)
Погода в Ciudad Obregon (Мексика) (377 км)
Погода в Sombrerete (Мексика) (407 км)
Погода в Torreon (Мексика) (411 км)
Погода в Loreto (Мексика) (415 км)

Пояснения к столбцам:

Ветер - указаны скорость ветра в м/с - средняя за 10 мин, порывы в срок и между сроками (в фигурных скобках) и направление, откуда дует ветер: С - северный, СВ - северо-восточный, В - восточный, ЮВ - юго-восточный, Ю - южный, ЮЗ - юго-западный, З - западный, СЗ - северо-западный.
Видимость - горизонтальная дальность видимости в метрах или километрах. При видимости от 1 до 10 км при отсутствии осадков обычно наблюдается дымка, при ухудшении видимости до 1 км и менее - туман. В сухую погоду видимость может ухудшаться дымом, пылью или мглою.
Явления - указаны атмосферные явления, наблюдавшиеся в срок или в последний час перед сроком; фигурными скобками обозначены явления, наблюдавшиеся между сроками (за 1-3 часа до срока); квадратными скобками обозначены град или гололедные отложения с указанием их диаметра в мм.
Облачность - указаны через наклонную черту общая и нижняя облачность в баллах и высота нижней границы облаков в метрах; квадратными скобками обозначены формы облаков: Ci - перистые, Cs - перисто-слоистые, Cc - перисто-кучевые, Ac - высококучевые, As - высокослоистые, Sc - слоисто-кучевые, Ns - слоисто-дождевые, Cu - кучевые, Cb - кучево-дождевые. Подробнее классификацию облаков см. в Атласе облаков (PDF).
T - Температура воздуха - температура, измеренная на высоте 2 м над землей.
Td - Температура точки росы - температура, при понижении до которой содержащийся в воздухе водяной пар достигнет насыщения.
f - Относительная влажность воздуха - влажноcть воздуха, измеренная на высоте 2 м над землей.
Te - Эффективная температура - температура, которую ощущает одетый по сезону человек в тени. Характеристика душности погоды. При расчете учитывается влияние влажности воздуха и скорости ветра на теплоощущения человека.
Tes - Эффективная температура на солнце - температура, которую ощущает человек, с поправкой на солнечный нагрев. Характеристика знойности погоды. Зависит от высоты солнца над горизонтом, облачности и скорости ветра. Ночью, в пасмурную погоду, а также при ветре 12 м/с и более поправка равна нулю.
P - Атмосферное давление - приведенное к уровню моря атмосферное давление.
Po - Атмосферное давление - измеренное на уровне метеостанции атмосферное давление.
Tmin - Минимальная температура - минимум температуры воздуха на высоте 2 м над землей.
Tmax - Максимальная температура - максимум температуры воздуха на высоте 2 м над землей.
R - Количество осадков - Количество выпавших осадков за период времени, мм. При наведении курсора мыши на число - период времени, за который выпало указанное количество осадков.
R24 - Количество осадков - Количество выпавших осадков за 24 часа, мм.
S - Снежный покров - Высота снежного покрова, см. При наведении курсора мыши на число - состояние снежного покрова и степень покрытия местности в баллах.